This is the latest recevied weather packets stored in our database for station/object KF0WJA. If no packets are shown the sender has not sent any weather packets the latest 10 day(s).
| Time | Temp. | Humidity | Pressure | Rain* | Wind** | Luminosity | Snow |
|---|---|---|---|---|---|---|---|
| 1787674503 | 30° C | 68% | 1019 hPa | 0 mm | - | 635 W/m² | - |
| 1787674198 | 30° C | 68% | 1018.9 hPa | 0 mm | - | 634 W/m² | - |
| 1787673897 | 28.89° C | 69% | 1018.9 hPa | 0 mm | - | 622 W/m² | - |
| 1787673594 | 28.89° C | 69% | 1018.5 hPa | 0 mm | - | 607 W/m² | - |
| 1787673293 | 28.89° C | 70% | 1018.6 hPa | 0 mm | - | 567 W/m² | - |
| 1787672992 | 28.89° C | 70% | 1018.4 hPa | 0 mm | - | 544 W/m² | - |
| 1787672688 | 28.33° C | 72% | 1018.4 hPa | 0 mm | - | 547 W/m² | - |
| 1787672388 | 28.33° C | 71% | 1018.4 hPa | 0 mm | - | 545 W/m² | - |
| 1787672083 | 28.33° C | 72% | 1018.5 hPa | 0 mm | - | 535 W/m² | - |
| 1787671782 | 27.78° C | 72% | 1018.4 hPa | 0 mm | - | 524 W/m² | - |
| 1787671477 | 28.33° C | 73% | 1018.1 hPa | 0 mm | - | 484 W/m² | - |
| 1787671173 | 27.78° C | 73% | 1018.2 hPa | 0 mm | - | 453 W/m² | - |
| 1787670869 | 27.78° C | 73% | 1018.4 hPa | 0 mm | - | 410 W/m² | - |
| 1787670564 | 27.78° C | 75% | 1018.3 hPa | 0 mm | - | 395 W/m² | - |
| 1787670263 | 27.22° C | 75% | 1018 hPa | 0 mm | - | 379 W/m² | - |
| 1787669963 | 27.22° C | 75% | 1018.4 hPa | 0 mm | - | 368 W/m² | - |
| 1787669658 | 26.67° C | 77% | 1018.3 hPa | 0 mm | - | 337 W/m² | - |
| 1787669353 | 26.67° C | 78% | 1018.5 hPa | 0 mm | - | 309 W/m² | - |
| 1787669049 | 26.67° C | 79% | 1018.4 hPa | 0 mm | - | 314 W/m² | - |
| 1787668745 | 26.11° C | 79% | 1018.5 hPa | 0 mm | - | 308 W/m² | - |
| 1787668441 | 26.11° C | 79% | 1018.5 hPa | 0 mm | - | 287 W/m² | - |
| 1787668135 | 25.56° C | 81% | 1018.9 hPa | 0 mm | - | 290 W/m² | - |
| 1787667831 | 25° C | 83% | 1018.4 hPa | 0 mm | - | 238 W/m² | - |
| 1787667526 | 24.44° C | 83% | 1018.4 hPa | 0 mm | - | 195 W/m² | - |
| 1787667223 | 25° C | 83% | 1018.3 hPa | 0 mm | - | 119 W/m² | - |
* Rain latest hour (hover to see other rain measurements)
** Current wind speed in m/s (hover to see current wind gust speed)